Location: Canet
(43.3261°N, 5.3723°E)
Time: 05:58:54
(UTC+00:00)

Envisat - Pass Details

Date: 27 September 2021
Orbit: 764 x 766 km, 98.2° (Epoch: 27 October)

Event Time Altitude Azimuth Distance (km) Brightness Sun altitude
Rises 04:22:51 0° 18° (NNE) 3,241 6.7 -13.2°
Reaches altitude 10° 04:25:16 10° 25° (NNE) 2,310 6.0 -12.8°
Maximum altitude 04:30:10 47° 99° (E) 1,011 4.1 -11.9°
Drops below altitude 10° 04:35:01 10° 173° (S) 2,293 5.5 -11.1°
Sets 04:37:24 0° 179° (S) 3,214 6.2 -10.6°
